Hourly Weather Roundup
Issued by NWS Central Illinois

Home | Current Version | Previous Version | Text Only | Print | Product List | Glossary On
Versions: 1 2 3 4 5 6 7 8 9 10 11 12 13 14 15 16 17 18 19 20 21 22 23 24 25 26 27 28 29 30 31 32 33 34 35 36 37 38 39 40 41 42 43 44 45 46 47 48 49 50
000
NZUS43 KILX 261210
HWRILX

Area Weather Roundup
National Weather Service Lincoln IL
700 AM CDT MON JUN 26 2017

NOTE:  "FAIR" indicates few or no clouds below 12,000 feet, with
       no sigificant weather and/or obstructions to visibility.


CITY           SKY/WX    TMP DP  RH WIND       PRES   REMARKS
Bloomington    SUNNY     58  49  72 W7        30.19R
6HR MIN TEMP:  52; 6HR MAX TEMP:  58;

Champaign      SUNNY     54  50  86 W5        30.18S
Danville       SUNNY     58  52  81 SW6       30.15S
6HR MIN TEMP:  51; 6HR MAX TEMP:  58;

Decatur        SUNNY     59  49  69 W7        30.19R
6HR MIN TEMP:  52; 6HR MAX TEMP:  60;

Effingham      SUNNY     58  53  84 W3        30.21S
6HR MIN TEMP:  51; 6HR MAX TEMP:  58;

Flora          SUNNY     60  52  76 SW3       30.21S
6HR MIN TEMP:  52; 6HR MAX TEMP:  60;

Galesburg      CLOUDY    54  49  82 CALM      30.19F
6HR MIN TEMP:  48; 6HR MAX TEMP:  54;

Jacksonville   SUNNY     56  49  79 SW3       30.20S
6HR MIN TEMP:  51; 6HR MAX TEMP:  56;

Lacon          MOSUNNY   57  49  76 W5        30.17R
6HR MIN TEMP:  50; 6HR MAX TEMP:  57;

Lawrenceville  SUNNY     57  54  89 SW3       30.20R
6HR MIN TEMP:  52; 6HR MAX TEMP:  61;

Litchfield     SUNNY     57  51  78 W3        30.21R
6HR MIN TEMP:  49; 6HR MAX TEMP:  57;

$$


CITY           SKY/WX    TMP DP  RH WIND       PRES   REMARKS
Lincoln        SUNNY     59  50  72 CALM      30.19S
6HR MIN TEMP:  52; 6HR MAX TEMP:  59;

Macomb         SUNNY     54  51  90 W6        30.22R
6HR MIN TEMP:  49; 6HR MAX TEMP:  54;

Mattoon        MOSUNNY   59  52  77 W5        30.18R
6HR MIN TEMP:  55; 6HR MAX TEMP:  59;

Mt Carmel AP   SUNNY     55  52  89 CALM      30.20R
6HR MIN TEMP:  50; 6HR MAX TEMP:  55;

Olney-Noble AP SUNNY     57  56  95 W3        30.21R
Paris AP       SUNNY     56  53  86 W5        30.19R
6HR MIN TEMP:  50; 6HR MAX TEMP:  56;

Peoria         SUNNY     56  49  77 NW3       30.18S
6HR MIN TEMP:  51; 6HR MAX TEMP:  56;

Pontiac        SUNNY     58  54  85 W5        30.17R
6HR MIN TEMP:  53; 6HR MAX TEMP:  58;

Rantoul        SUNNY     60  54  81 W5        30.17S
6HR MIN TEMP:  52; 6HR MAX TEMP:  60;

Robinson       SUNNY     56  53  90 CALM      30.19S
6HR MIN TEMP:  48; 6HR MAX TEMP:  56;

Springfield    SUNNY     56  50  80 SW5       30.20R
6HR MIN TEMP:  51; 6HR MAX TEMP:  57;

Taylorville    SUNNY     55  50  83 W3        30.20F
6HR MIN TEMP:  49; 6HR MAX TEMP:  55;

$$

...REGIONAL REPORTS...


CITY           SKY/WX    TMP DP  RH WIND       PRES   REMARKS
Chicago O`Hare CLOUDY    58  48  69 W9        30.11S
Kankakee       SUNNY     57  52  82 W8        30.16S
Moline         CLOUDY    56  48  74 W8        30.18R
Mount Sterling SUNNY     56  49  79 SW3       30.20S
Mount Vernon   SUNNY     56  54  93 CALM      30.22R
Pittsfield     SUNNY     58  50  77 CALM      30.21F
Quincy         SUNNY     56  52  86 SW5       30.20S
Rockford       PTSUNNY   56  49  77 W6        30.15S
$$


CITY           SKY/WX    TMP DP  RH WIND       PRES   REMARKS
Burlington     PTSUNNY   56  48  74 NW6       30.19S
Cedar Rapids   CLOUDY    56  52  86 W9        30.17F
Des Moines     RAIN      56  54  93 W5        30.25R FOG
Kirksville     SUNNY     55  51  86 N5        30.23R
Ottumwa        LGT RAIN  56  52  86 N13       30.22S
St Louis       MOSUNNY   64  50  60 W7        30.22R
$$


CITY           SKY/WX    TMP DP  RH WIND       PRES   REMARKS
Terre Haute    MOSUNNY   58  52  80 W3        30.18R
Evansville     SUNNY     59  54  83 SW3       30.21R
Indianapolis   MOSUNNY   58  52  80 W6        30.17R
Lafayette      SUNNY     55  53  93 W6        30.16R
Madison        MOSUNNY   53  49  86 NW3       30.10S
Milwaukee      MOSUNNY   59  48  67 W8        30.09R
$$






USA.gov is the U.S. government's official web portal to all federal, state and local government web resources and services.